Location: Golden Pond Observatory
(36.7773°N, 88.0631°W)
Time: 06:38:28
(UTC-05:00)

ISS - Visible Passes

Search period start: 29 September 2020 00:00
Search period end: 09 October 2020 00:00
Orbit: 419 x 421 km, 51.6° (Epoch: 30 September)

Date Brightness Start Highest point End Pass type
(mag) Time Alt. Az. Time Alt. Az. Time Alt. Az.
29 Sep -0.9 20:18:27 10° N 20:18:31 10° N 20:18:31 10° N visible
01 Oct -1.4 20:19:15 10° NNW 20:20:38 16° N 20:20:38 16° N visible
02 Oct -1.5 19:32:26 10° N 19:34:13 14° NNE 19:35:16 12° NE visible
02 Oct -0.3 21:08:08 10° NW 21:08:14 11° NW 21:08:14 11° NW visible
03 Oct -2.1 20:20:57 10° NW 20:22:56 29° NNW 20:22:56 29° NNW visible
04 Oct -2.5 19:33:52 10° NNW 19:36:49 27° NNE 19:37:42 24° ENE visible
04 Oct -0.1 21:10:39 10° WNW 21:10:41 10° WNW 21:10:41 10° WNW visible
05 Oct -2.5 20:23:06 10° WNW 20:25:34 40° W 20:25:34 40° W visible
06 Oct -3.9 19:35:45 10° NW 19:39:08 80° NE 19:40:34 31° SE visible
07 Oct -3.3 18:48:31 10° NW 18:51:47 44° NE 18:55:01 10° ESE visible
07 Oct -1.2 20:26:10 10° W 20:28:19 16° SW 20:28:44 16° SW visible
08 Oct -1.9 19:38:11 10° WNW 19:41:08 28° SW 19:44:03 10° SSE visible
